Weather History for Sandberg, CA

Change the Weather History Date:

Friday, August 16, 2013

  Actual Average Record
Temperature  
Mean Temperature 83 °F 74 °F  
Max Temperature 93 °F 85 °F 98 °F (1994)
Min Temperature 72 °F 64 °F 44 °F (1976)
Degree Days  
Heating Degree Days 0 0  
Month to date heating degree days 0 0  
Since 1 June heating degree days 16 92  
Since 1 July heating degree days 0 8  
Cooling Degree Days 18 10  
Month to date cooling degree days 164 160  
Year to date cooling degree days 1003 623  
Since 1 June cooling degree days 873 578  
Growing Degree Days 32 (Base 50)    
Moisture  
Dew Point 38 °F    
Average Humidity 23    
Maximum Humidity 31    
Minimum Humidity 14    
Precipitation  
Precipitation 0.00 in 0.00 in 0.18 in (1977)
Month to date precipitation 0.00 0.01  
Year to date precipitation 2.97 8.51  
Since 1 July precipitation 0.06 0.03  
Sea Level Pressure  
Sea Level Pressure 29.96 in    
Wind  
Wind Speed 11 mph (WSW)    
Max Wind Speed 20 mph    
Max Gust Speed 28 mph    
Visibility 10 miles    
Events      
T = Trace of Precipitation, MM = Missing Value Source: NWS Daily Summary

Daily Weather History Graph

Daily Weather History Graph

Search for Another Location

Airport:

Trip Planner

Search our weather history database for the weather conditions in past years. The results will help you decide how hot, cold, wet, or windy it might be!

Date:

Astronomy

Aug. 16, 2013 Rise Set
Actual Time 6:16 AM PDT 7:41 PM PDT
Civil Twilight 5:49 AM PDT 8:07 PM PDT
Nautical Twilight 5:17 AM PDT 8:39 PM PDT
Astronomical Twilight 4:44 AM PDT 9:12 PM PDT
Moon 4:00 PM PDT (8/16) 1:28 AM PDT (8/16)
Length of Visible Light 14h 18m
Length of Day
13h 24m
Waxing Gibbous, 76% of the Moon is Illuminated
Aug 16
Waxing Gibbous
Aug 20
Full
Aug 28
Last Quarter
Sep 5
New
Sep 12
First Quarter

Hourly Weather History & Observations

Time (PDT) Temp. Dew Point Humidity Pressure Visibility Wind Dir Wind Speed Gust Speed Precip Events Conditions
12:48 AM 77.0 °F 26.1 °F 15% 29.95 in 10.0 mi NNW 12.7 mph - N/A   Clear
1:48 AM 75.0 °F 34.0 °F 22% 29.94 in 10.0 mi NNW 10.4 mph - N/A   Clear
2:48 AM 73.9 °F 37.0 °F 26% 29.93 in 10.0 mi NNW 13.8 mph - N/A   Clear
3:48 AM 73.0 °F 39.9 °F 30% 29.94 in 10.0 mi NNW 11.5 mph - N/A   Clear
4:48 AM 72.0 °F 39.0 °F 30% 29.94 in 10.0 mi NNW 11.5 mph - N/A   Clear
5:48 AM 73.9 °F 37.0 °F 26% 29.94 in 10.0 mi NW 9.2 mph - N/A   Clear
6:48 AM 75.9 °F 36.0 °F 23% 29.95 in 10.0 mi WNW 6.9 mph - N/A   Clear
7:48 AM 79.0 °F 36.0 °F 21% 29.97 in 10.0 mi West 4.6 mph - N/A   Clear
8:48 AM 80.1 °F 36.0 °F 20% 29.99 in 10.0 mi SSW 6.9 mph - N/A   Clear
9:48 AM 84.9 °F 32.0 °F 15% 29.98 in 10.0 mi South 6.9 mph - N/A   Clear
10:48 AM 89.1 °F 34.0 °F 14% 29.97 in 10.0 mi SSE 12.7 mph - N/A   Clear
11:48 AM 90.0 °F 37.9 °F 16% 29.97 in 10.0 mi SSE 16.1 mph 24.2 mph N/A   Clear
12:48 PM 91.9 °F 39.0 °F 16% 29.96 in 10.0 mi SSE 15.0 mph 23.0 mph N/A   Clear
1:48 PM 91.9 °F 39.0 °F 16% 29.96 in 10.0 mi South 15.0 mph 25.3 mph N/A   Clear
2:48 PM 93.0 °F 39.0 °F 15% 29.95 in 10.0 mi SSE 18.4 mph 25.3 mph N/A   Clear
3:48 PM 89.1 °F 41.0 °F 19% 29.95 in 10.0 mi South 16.1 mph 24.2 mph N/A   Clear
4:48 PM 89.1 °F 43.0 °F 20% 29.94 in 10.0 mi South 15.0 mph - N/A   Clear
5:48 PM 86.0 °F 42.1 °F 21% 29.96 in 10.0 mi South 11.5 mph - N/A   Clear
6:48 PM 82.9 °F 44.1 °F 25% 29.96 in 10.0 mi Variable 6.9 mph - N/A   Clear
7:48 PM 79.0 °F 39.0 °F 24% 29.97 in 10.0 mi Calm Calm - N/A   Clear
8:48 PM 77.0 °F 39.0 °F 25% 29.98 in 10.0 mi WSW 5.8 mph - N/A   Clear
9:48 PM 75.9 °F 37.9 °F 25% 29.98 in 10.0 mi Calm Calm - N/A   Clear
10:48 PM 77.0 °F 37.0 °F 24% 29.98 in 10.0 mi WNW 13.8 mph - N/A   Clear
11:48 PM 75.9 °F 36.0 °F 23% 29.98 in 10.0 mi WNW 13.8 mph - N/A   Clear